Regional Weather Roundup
Issued by NWS Glasgow, MT

Home | Current Version | Previous Version | Text Only | Print | Product List | Glossary On
Versions: 1 2 3 4 5 6 7 8 9 10 11 12 13 14 15 16 17 18 19 20 21 22 23 24 25 26 27 28 29 30 31 32 33 34 35 36 37 38 39 40 41 42 43 44 45 46 47 48 49 50
000
ASUS45 KGGW 260915
RWRGGW
HOURLY WEATHER ROUNDUP FOR NORTHEAST MONTANA
NATIONAL WEATHER SERVICE GLASGOW MONTANA
300 AM MDT SAT JUL 26 2014

NOTE: "FAIR" INDICATES FEW OR NO CLOUDS BELOW 12,000 FEET WITH NO
SIGNIFICANT WEATHER AND/OR OBSTRUCTIONS TO VISISBILITY.

NORTHEAST MONTANA


CITY           SKY/WX    TMP DP  RH WIND       PRES   REMARKS
GLASGOW        CLEAR     55  48  77 W10       29.92R
PLENTYWOOD       N/A     58  50  75 W17         N/A
WOLF POINT     CLEAR     58  47  66 SW10      29.90R
JORDAN           N/A     50  43  77 W5        30.00R
WINNETT          N/A     50  42  74 CALM        N/A
SIDNEY         CLEAR     61  46  59 W8        29.91R
GLENDIVE       CLEAR     55  46  71 SW5       29.96R
MALTA            N/A    N/A N/A N/A N8          N/A
SCOBEY           N/A     57  48  72 W10G16    29.85S

FORT PECK REPORTS


CITY           SKY/WX    TMP DP  RH WIND       PRES   REMARKS
FORT PECK        N/A     59  48  67 W14         N/A
THE PINES        N/A     59  47  64 W7          N/A

SOUTHEAST MONTANA


CITY           SKY/WX    TMP DP  RH WIND       PRES   REMARKS
BILLINGS       CLEAR     62  32  32 NW10      30.06S
MILES CITY     CLEAR     56  43  61 NW8       29.99R
BAKER          CLEAR     56  42  59 NW6       29.97R
LIVINGSTON     CLEAR     53  33  46 NW10      30.12S

CENTRAL MONTANA


CITY           SKY/WX    TMP DP  RH WIND       PRES   REMARKS
HAVRE          CLEAR     53  47  79 SW10      30.02R
LEWISTOWN      CLEAR     50  42  74 SW9       30.11R
GREAT FALLS    CLEAR     52  38  58 E7        30.08R
CUT BANK       CLEAR     47  42  83 CALM      30.09R
HELENA         CLEAR     56  37  49 E6        30.11S
BUTTE          CLEAR     45  29  53 S5        30.21R
BOZEMAN        CLEAR     45  38  76 SE9       30.14S

WESTERN MONTANA


CITY           SKY/WX    TMP DP  RH WIND       PRES   REMARKS
MISSOULA       CLEAR     52  41  66 CALM      30.14R
KALISPELL      NOT AVBL

NORTH DAKOTA


CITY           SKY/WX    TMP DP  RH WIND       PRES   REMARKS
WILLISTON      CLEAR     58  49  72 W12       29.85R
DICKINSON      CLEAR     55  46  71 NW13      29.89R
MINOT          CLEAR     59  50  72 SW10      29.77F
BISMARCK       CLEAR     61  52  72 S8        29.81F

SOUTHERN SASKATCHEWAN


CITY           SKY/WX    TMP DP  RH WIND       PRES   REMARKS
REGINA         LGT RAIN  55  54  94 W21G30    29.66R
ESTEVAN        CLOUDY    59  54  82 W14       29.75F
SWIFT CURRENT  CLOUDY    55  52  88 W21G32    29.83R



USA.gov is the U.S. government's official web portal to all federal, state and local government web resources and services.